Location: Unspecified
(47.4992°N, 121.7766°W)
Time: 06:17:32
(UTC-08:00)

CZ-3 Stage 3 - Visible Passes

Search period start: 23 February 2020 00:00
Search period end: 04 March 2020 00:00
Orbit: 411 x 34779 km, 30.8° (Epoch: 22 February)

Date Brightness Start Highest point End Pass type
(mag) Time Alt. Az. Time Alt. Az. Time Alt. Az.
23 Feb 7.0 16:12:04 10° S 23:36:35 48° SW 23:36:35 48° SW visible
24 Feb 7.1 14:09:13 10° SE 19:36:18 45° SSE 20:08:27 29° ESE visible
26 Feb 6.8 15:56:51 10° S 23:27:48 50° SSW 23:27:48 50° SSW visible
27 Feb 7.0 13:53:43 10° SE 19:25:09 46° SSE 19:59:38 26° ESE visible
29 Feb 6.7 15:41:54 10° S 23:18:55 51° SSW 23:18:55 51° SSW visible
01 Mar 6.9 13:38:17 10° SE 19:13:59 47° SSE 19:50:43 24° ESE visible
03 Mar 6.5 15:27:11 10° S 23:09:56 52° SSW 23:09:56 52° SSW visible
